Dewpoint
71 69 66 62 55 52 48 49 51 52 54 57 56 53 55 58 55 52 64 63 67 67 67 67 70 70 70 71 72 72 73 73 74 74 75 75 75 74 74 74 74 74 74 74 73 73 73 73 73
70 68 64 62 50 45 47 51 52 55 57 58 57 57 56 56 60 61 59 65 66 66 67 67 71 70 70 70 72 71 72 73 73 74 74 75 74 74 74 74 74 74 74 73 73 74 73 74 74
65 65 61 57 50 47 48 53 54 55 55 53 54 55 53 56 60 58 60 64 65 67 65 66 70 71 70 69 70 70 72 73 72 74 74 74 74 74 74 74 74 74 74 74 74 74 74 74 74
64 63 62 54 48 50 51 54 54 52 51 51 51 51 55 59 59 59 61 64 66 66 66 69 70 69 70 69 69 71 72 72 71 73 74 74 74 74 75 74 75 74 74 74 73 73 72 73 73
64 60 55 51 49 52 54 52 52 51 49 50 48 48 53 57 60 59 61 63 64 64 65 69 70 70 70 69 70 70 70 71 71 73 74 74 74 74 74 74 74 74 74 74 73 72 72 73 71
57 60 53 49 49 53 53 53 52 49 49 48 47 49 53 59 58 59 60 64 65 65 69 70 69 70 70 70 70 68 67 70 69 73 74 74 74 75 74 74 74 74 73 72 72 71 71 69 68
55 58 53 51 50 51 53 52 49 47 47 48 52 49 54 56 58 60 63 66 66 66 65 69 69 69 69 70 70 70 69 71 72 73 74 74 74 73 73 73 72 72 72 71 71 71 71 70 71
61 59 54 52 50 51 53 50 51 48 50 53 54 50 52 56 59 61 65 66 68 68 69 70 68 73 74 73 71 73 74 72 73 73 74 74 74 74 75 74 74 73 73 72 72 72 72 72 72
60 55 53 52 52 54 56 49 52 54 51 55 57 52 54 57 61 63 65 67 67 69 69 69 71 73 74 74 74 73 72 73 73 73 74 72 71 71 70 73 73 72 72 72 72 72 72 73 72
56 55 54 57 56 56 57 52 52 50 52 55 56 56 58 60 62 62 63 63 63 67 70 72 72 72 72 71 74 74 73 74 74 74 74 71 71 72 70 71 74 74 73 73 72 72 72 71 67
56 54 56 57 59 58 58 56 53 49 51 55 54 56 59 61 62 62 64 63 61 67 69 72 72 73 72 73 75 74 74 72 71 73 72 72 70 71 69 69 68 70 69 67 67 68 68 68 68
54 56 56 58 58 58 58 58 53 50 53 56 56 57 58 60 61 62 62 63 64 67 69 70 71 72 72 73 72 73 70 69 68 68 71 72 70 72 71 66 68 69 71 72 72 70 71 71 71
55 57 59 59 58 59 58 57 56 52 58 57 58 58 58 59 61 62 64 64 64 65 67 69 71 72 72 74 72 72 71 70 70 71 71 70 69 70 70 71 72 72 72 71 72 72 71 72 70
58 57 58 60 60 58 57 56 56 54 58 57 58 58 58 59 60 63 64 65 64 65 66 67 70 71 71 71 72 71 70 70 71 71 72 71 70 72 72 72 72 71 71 70 71 72 71 70 68
58 58 58 57 59 56 57 54 55 56 56 56 57 58 59 60 61 62 63 64 65 64 66 67 69 70 71 71 70 70 70 68 69 70 72 71 73 73 72 71 71 70 72 73 73 72 71 68 65
56 56 52 57 58 57 56 51 56 57 55 55 57 58 59 61 60 62 62 64 65 65 67 68 67 68 70 70 70 69 69 69 69 69 70 70 73 73 72 69 69 69 72 71 70 70 69 69 67
52 49 50 54 57 57 55 54 56 56 55 54 56 57 59 60 61 62 62 63 64 66 67 67 68 68 69 70 69 70 70 69 70 69 67 70 73 72 71 69 67 70 71 71 69 68 69 69 68
46 47 50 50 56 55 54 52 52 54 55 55 55 56 58 58 60 61 62 63 64 65 67 67 66 69 70 68 69 68 68 69 70 69 67 70 73 71 69 68 67 68 70 71 70 70 68 68 67
47 46 47 52 56 54 53 52 55 57 57 57 55 56 56 57 58 59 61 63 64 65 65 65 66 69 68 67 67 67 66 69 70 70 72 73 73 73 71 67 67 68 69 72 72 70 69 67 69
47 44 45 51 55 55 54 52 55 56 57 58 56 54 55 55 57 60 61 62 63 65 65 66 67 70 70 68 69 69 68 69 70 70 73 73 73 73 69 68 68 70 68 70 71 71 67 66 66
39 35 46 45 52 55 54 52 54 55 57 59 59 58 56 55 56 59 62 62 63 64 66 67 68 69 70 71 70 70 71 71 69 70 69 71 73 71 72 70 67 70 69 67 70 70 69 65 66
26 41 45 48 46 45 52 38 50 53 55 57 57 58 57 56 56 58 61 62 62 64 65 68 68 69 69 72 70 71 66 66 67 69 70 70 73 73 72 68 69 68 69 70 70 71 70 69 67
33 46 47 46 47 49 48 43 46 53 54 56 57 57 57 57 56 57 60 62 62 64 65 67 69 70 71 71 72 69 68 67 70 70 72 72 72 72 71 68 68 70 72 72 73 75 73 71 70
47 47 47 49 49 41 42 45 39 50 51 53 56 57 57 57 57 58 59 62 63 64 65 67 69 71 71 71 71 71 71 70 68 70 69 69 70 71 73 72 72 72 73 73 75 76 74 75 73
45 41 38 36 35 30 47 46 41 49 53 54 55 56 58 59 59 59 59 62 63 64 65 66 69 70 71 70 70 71 71 72 72 73 68 70 69 69 72 74 74 72 73 74 75 75 74 74 73
41 33 21 24 24 30 46 41 41 50 55 56 58 58 58 58 60 61 60 61 63 64 66 66 68 69 70 70 71 72 72 69 69 70 69 69 69 69 73 74 74 74 74 74 75 73 74 75 74
28 23 28 35 38 33 38 41 45 52 52 53 55 58 58 59 60 60 61 62 63 64 66 67 68 69 69 69 70 71 72 71 69 72 72 69 72 70 73 73 74 74 74 74 75 73 75 75 75
32 39 31 34 30 26 33 38 38 48 51 52 56 57 59 60 61 61 61 62 63 63 64 66 67 68 68 69 69 69 70 71 71 72 71 72 72 73 74 74 74 74 74 74 75 77 74 75 75
36 36 38 36 37 29 30 31 45 49 51 53 56 57 58 61 62 65 62 63 63 64 63 65 66 67 68 68 69 69 69 70 71 71 71 71 72 74 74 74 74 74 73 72 73 75 74 74 75
37 37 36 27 37 43 41 33 44 52 53 54 56 57 56 57 63 65 65 65 66 64 64 63 65 66 67 68 70 70 70 70 69 70 71 72 72 73 74 74 73 72 72 72 73 72 72 73 73
Lifted_Index
-3 -3 -1 -1 -1 -1 -1 -1 -1 -1 -1 -1 -1 -1 -1 -1 -0 1 1 1 0 -0 -0 -0 -0 -1 -1 -1 -2 -2 -2 -3 -3 -4 -4 -5 -5 -5 -5 -5 -5 -5 -4 -4 -4 -4 -4 -4 -4
-3 -2 -1 -1 -1 -0 -1 -1 -1 -1 -1 -1 -1 -1 -0 -0 0 1 1 1 0 0 0 0 -0 -0 -0 -0 -1 -1 -2 -3 -3 -4 -4 -4 -5 -5 -5 -5 -5 -5 -4 -4 -4 -4 -4 -4 -4
-2 -2 -2 -1 -1 -0 -1 -1 -1 -0 -0 -0 -0 -0 0 1 1 1 2 1 0 0 0 0 -0 0 0 0 0 -1 -2 -2 -3 -3 -4 -4 -4 -4 -5 -5 -5 -5 -4 -4 -4 -4 -5 -5 -5
-2 -2 -2 -2 -1 -1 -1 -0 -0 0 0 -0 0 1 1 1 1 2 1 1 0 0 0 -0 -0 0 1 1 0 -1 -2 -2 -2 -3 -4 -4 -4 -4 -5 -5 -5 -5 -5 -5 -4 -4 -5 -5 -4
-1 -2 -2 -2 -1 -1 -1 0 1 1 1 1 1 2 2 2 2 2 1 1 -0 -0 -0 -0 -0 -0 0 1 0 -0 -1 -1 -2 -3 -4 -4 -5 -5 -5 -5 -5 -5 -5 -4 -4 -4 -4 -4 -3
-1 -1 -2 -2 -1 -1 -0 0 1 1 2 2 2 2 2 2 2 1 1 -0 -1 -0 -0 -0 -1 -0 0 0 0 -0 -1 -1 -2 -3 -4 -5 -5 -6 -5 -5 -5 -4 -4 -4 -3 -3 -3 -3 -3
-1 -1 -1 -1 -1 -1 -0 1 1 2 2 2 2 2 2 2 2 1 -0 -1 -1 -1 -1 -0 -0 -0 -1 -1 -1 -1 -1 -2 -2 -3 -4 -5 -5 -6 -5 -5 -5 -4 -4 -3 -3 -3 -3 -3 -3
-1 -1 -1 -1 -1 -1 -0 0 1 2 2 1 1 1 2 2 1 -0 -1 -2 -2 -2 -2 -1 -1 -2 -2 -2 -2 -3 -3 -3 -4 -4 -5 -5 -5 -5 -5 -5 -5 -5 -4 -4 -4 -4 -4 -4 -4
-0 -0 -1 -1 -1 -1 -1 0 1 1 1 0 0 1 1 1 -0 -1 -2 -2 -3 -3 -3 -3 -3 -3 -4 -4 -4 -4 -4 -4 -5 -5 -5 -5 -5 -5 -5 -5 -5 -5 -5 -4 -4 -4 -4 -4 -4
0 -0 -0 -1 -1 -1 -1 -0 0 1 0 -0 0 1 1 -0 -1 -2 -2 -2 -2 -3 -3 -4 -4 -4 -4 -4 -4 -5 -5 -5 -5 -5 -5 -5 -5 -5 -5 -5 -5 -5 -4 -4 -4 -4 -4 -4 -4
-0 -0 -0 -1 -1 -2 -2 -1 -0 0 -0 -0 -0 0 -0 -1 -2 -3 -3 -2 -2 -3 -3 -4 -4 -4 -4 -5 -5 -5 -5 -5 -5 -5 -5 -4 -5 -5 -4 -4 -4 -4 -4 -4 -4 -4 -4 -4 -4
-0 -0 -1 -1 -1 -2 -2 -2 -1 -0 -0 -1 -0 0 -0 -1 -2 -3 -3 -2 -2 -3 -3 -4 -4 -4 -5 -5 -5 -5 -5 -4 -4 -4 -4 -4 -5 -5 -4 -4 -3 -3 -4 -4 -4 -4 -5 -5 -5
-1 -1 -1 -1 -1 -2 -2 -2 -1 -1 -1 -1 -0 -0 -0 -1 -2 -3 -3 -3 -2 -3 -3 -4 -4 -4 -5 -5 -5 -5 -4 -4 -4 -4 -4 -4 -4 -5 -5 -4 -4 -4 -4 -5 -5 -5 -5 -6 -6
-2 -1 -1 -1 -1 -1 -2 -2 -2 -1 -1 -0 -0 -1 -1 -1 -2 -2 -3 -3 -3 -3 -3 -4 -4 -4 -4 -4 -4 -4 -4 -4 -4 -5 -4 -4 -4 -5 -5 -5 -5 -4 -4 -5 -5 -5 -6 -6 -6
-2 -2 -1 -1 -1 -1 -1 -1 -2 -1 -1 -1 -1 -1 -1 -2 -2 -2 -2 -2 -2 -3 -3 -3 -4 -4 -4 -4 -4 -4 -4 -4 -4 -4 -4 -4 -5 -5 -5 -4 -4 -4 -4 -4 -5 -6 -6 -5 -5
-2 -2 -1 -1 -1 -1 -1 -1 -1 -1 -1 -1 -1 -1 -1 -2 -2 -2 -2 -2 -2 -2 -3 -3 -3 -4 -4 -3 -4 -4 -4 -4 -4 -4 -4 -4 -5 -5 -4 -3 -3 -3 -4 -4 -5 -5 -5 -5 -4
-2 -1 -1 -1 -1 -1 -1 -1 -1 -1 -2 -1 -1 -1 -2 -2 -2 -2 -2 -2 -2 -2 -2 -2 -3 -3 -3 -3 -3 -3 -4 -4 -4 -3 -3 -3 -4 -4 -3 -2 -2 -2 -3 -4 -4 -4 -4 -4 -4
-2 -1 -1 -2 -2 -2 -1 -1 -1 -1 -2 -2 -1 -1 -1 -2 -2 -2 -2 -2 -2 -2 -2 -2 -2 -3 -3 -3 -3 -3 -3 -3 -4 -3 -3 -4 -4 -4 -3 -2 -1 -1 -3 -4 -4 -4 -4 -4 -4
-2 -2 -1 -2 -2 -2 -2 -2 -2 -2 -2 -2 -2 -1 -1 -1 -1 -2 -2 -2 -2 -1 -1 -1 -2 -2 -3 -2 -3 -3 -3 -3 -4 -4 -4 -5 -5 -4 -3 -2 -1 -1 -2 -3 -4 -4 -4 -3 -3
-1 -1 -1 -2 -2 -3 -2 -2 -2 -2 -2 -2 -2 -2 -1 -1 -1 -1 -1 -2 -2 -2 -1 -1 -2 -2 -3 -3 -3 -3 -3 -4 -4 -4 -5 -5 -5 -4 -3 -2 -1 -1 -2 -3 -4 -4 -3 -3 -3
-0 -1 -1 -2 -2 -3 -2 -2 -2 -2 -2 -2 -2 -2 -1 -1 -1 -1 -2 -2 -2 -2 -2 -2 -2 -2 -3 -3 -3 -3 -3 -3 -4 -4 -4 -5 -5 -5 -4 -2 -1 -1 -2 -2 -3 -4 -3 -3 -2
-0 -1 -2 -2 -2 -2 -2 -1 -2 -2 -2 -2 -2 -2 -2 -1 -1 -1 -2 -2 -2 -2 -2 -2 -2 -3 -3 -3 -3 -3 -3 -3 -4 -4 -4 -5 -5 -5 -4 -2 -1 -1 -2 -3 -4 -4 -4 -3 -3
-1 -2 -2 -2 -2 -2 -2 -1 -1 -2 -2 -3 -3 -3 -2 -2 -1 -1 -1 -2 -2 -2 -2 -3 -3 -3 -3 -3 -4 -3 -3 -3 -4 -4 -4 -5 -5 -5 -4 -3 -2 -2 -3 -4 -5 -5 -5 -4 -4
-2 -2 -2 -2 -2 -1 -1 -1 -1 -2 -2 -2 -3 -3 -3 -2 -2 -1 -1 -2 -2 -2 -2 -3 -3 -3 -3 -4 -4 -4 -4 -4 -4 -4 -4 -4 -5 -5 -4 -4 -4 -4 -4 -5 -5 -6 -5 -5 -5
-2 -2 -1 -1 -1 -0 -1 -1 -1 -2 -2 -2 -2 -2 -3 -3 -2 -2 -1 -2 -2 -2 -3 -3 -3 -4 -4 -4 -4 -4 -4 -4 -4 -4 -4 -4 -4 -5 -5 -5 -5 -5 -4 -5 -5 -6 -6 -5 -5
-1 -0 0 0 1 0 -0 -1 -1 -2 -2 -2 -2 -2 -2 -2 -2 -2 -2 -2 -2 -3 -3 -3 -3 -4 -4 -4 -4 -4 -4 -4 -4 -4 -4 -4 -4 -5 -5 -5 -5 -5 -5 -5 -5 -5 -5 -5 -5
0 1 1 1 1 1 0 -0 -1 -1 -2 -2 -2 -2 -2 -2 -2 -2 -1 -2 -2 -2 -2 -3 -3 -4 -4 -4 -4 -4 -4 -4 -4 -4 -4 -4 -4 -5 -5 -6 -6 -5 -5 -5 -5 -5 -5 -5 -5
1 1 1 1 0 0 0 0 -0 -1 -1 -2 -2 -2 -2 -2 -2 -2 -1 -1 -2 -2 -2 -2 -3 -3 -3 -4 -4 -4 -4 -4 -4 -4 -4 -4 -4 -5 -5 -6 -6 -6 -5 -5 -5 -5 -5 -5 -5
0 0 0 0 0 0 1 1 -0 -1 -1 -2 -2 -2 -2 -2 -2 -2 -2 -2 -1 -1 -2 -2 -2 -3 -3 -3 -3 -4 -4 -4 -4 -4 -4 -4 -4 -5 -5 -5 -5 -5 -5 -4 -4 -5 -5 -5 -5
0 0 0 1 0 0 1 1 0 -1 -2 -2 -2 -1 -1 -1 -2 -3 -3 -2 -1 -1 -1 -2 -2 -2 -3 -3 -3 -3 -4 -4 -4 -4 -4 -4 -4 -5 -5 -5 -5 -5 -4 -4 -4 -4 -4 -5 -5